Tracking 18840 objects as of 18-November-2017
HD Live streaming from Space Station
objects crossing your sky now

FENGYUN 1C DEB

Track FENGYUN 1C DEB now!
10-day predictions


NORAD ID: 30313
Int'l Code: 1999-025AAA
Perigee: 825.5 km
Apogee: 918.9 km
Inclination: 99.1 °
Period: 102.2 minutes
Semi major axis: 7243 km
RCS: 0.0812 m2 (small)
Launch date: May 10, 1999
Source: People's Republic of China (PRC)
Launch site: Taiyaun Space Center, China (TSC)

Note: This is SATELLITE DEBRIS
aabbcc
Your satellite tracking list
Your tracking list is empty




NASA's NSSDC Master Catalog

Two Line Element Set (TLE):
1 30313U 99025AAA 17321.69750278 +.00001255 +00000-0 +74545-3 0  9994
2 30313 099.1037 357.9610 0064495 025.2842 094.0652 14.08342596554656
Source of the keplerian elements: AFSPC